Location: Pic du Midi - T1M
(42.9366°N, 0.1426°E)
Time: 11:19:18
(UTC+01:00)

X-37B - Pass Details

Date: 20 June 2021
Orbit: 383 x 392 km, 45.0° (Epoch: 01 July)

Event Time Altitude Azimuth Distance (km) Brightness Sun altitude
Exits shadow 01:28:43 15° 72° (ENE) 1,143 3.2 -23.3°
Drops below altitude 10° 01:29:21 10° 74° (ENE) 1,398 3.7 -23.3°
Sets 01:31:26 0° 77° (ENE) 2,254 4.7 -23.3°
